Showing default

FLOCK 4Q 21, 58329

Orbit data source: Space-Track

FLOCK 4Q 21, 58329 is a payload satellite owned by Planet (US) in SSO that was launched on Sat, 11 Nov 2023 UTC via an FALCON 9 launch vehicle from the Air Force Western Test Range (AFWTR). Payload-class satellites include a variety of spacecraft equipped with specific instruments for various scientific and technological missions. These include communications satellites like Starlink; space stations such as the ISS; scientific satellites like the Hubble; Earth observation satellites from companies like Planet Labs, Umbra, and HawkEye 360; GPS; miniature CubeSats for education and research; and military/defense satellites.

Loading next visibility...
Identifier
58329, 2023-174CB
Orbit
SSO
Country
Flag of USUS
Related business
Manufacturer
Planet
Mission
Operational Commercial Imaging
Bus & Motor
CUBESAT 3U, Unknown motor
Mass
5.7 kg wet, 5.7 kg dry
Launch date (UTC)
2023-11-11 (2 years ago)
Launch vehicle
FALCON 9
Launch site
Air Force Western Test Range (AFWTR)
Object type
Payload
Rocket body
Debris
Shape & HBR
Box + 2 Pan, 1.0 m
Radar Cross Section
0.072 m², Medium (>0.1 m² and < 1m²)

Expand to show TLE details & history
Last TLE update: 15 hours ago

TLE from 15 hours ago
0 FLOCK 4Q 21
1 58329U 23174CB  25343.22069501  .00043287  00000-0  81132-3 0  9998
2 58329  97.4063  66.7581 0006854 118.2929 241.9014 15.48517520116452
Epoch: 2025-12-09T05:17Z
TLE epoch observation values (Epoch: 2025-12-09T05:17:48.048Z)
Latitude
-0.00003°
Longitude
-90.90059°
Altitude
426.389 km
Speed
7.654 km/s
True Right ascension
04h 27m 01s
True Declination
0° 00' 00"
Sunlit
Object was in full shadow at epoch
Visualization orbit readout
Latitude
Unknown
Longitude
Unknown
Altitude
Unknown
Speed
Unknown
Apparent Right ascension
Unknown
Apparent Declination
Unknown
Sunlit
N/A
Visualization observer readout
Local Sidereal Time
18:32:59
Azimuth
Unknown
Elevation
Unknown
Doppler factor
Unknown
Orbital elements
Apogee altitude
422.648 km
Perigee altitude
413.332 km
Semi-major axis
6,796.127 km
Eccentricity
0.00069
Inclination
97.4063°
RAAN
66.7581°
Arg. of periapsis
118.2929°
True anomaly
241.83214°
Mean anomaly
241.9014°
Eccentric anomaly
241.86677°
Mean motion
3.87392 °/min
Orbital period
92.93 mins
BSTAR
0.00081132
Loading maneuver chart data...
Computing Atmospheric mass density...
Loading historical data...
Loading historical data...
Loading historical data...
Loading historical data...
Loading historical data...
Loading historical data...
Loading historical data...

Documentation

Showing up to 5 results
|